VOZ445 YPAD-YMML

Flight info

Callsign VOZ445
Flight time 1h 0m
Altitude 39000
Route AD V255 BENDO Y12 ARBEY H119 ML
Aircraft B738/M-SDE2E3FGHIRWXY/LB1

Departure

Time 2026-05-01 09:48
Airport Adelaide International Airport (YPAD)

Arrival

Time 2026-05-01 10:48
Airport Melbourne Airport (YMML)
Time Latitude Longitude Altitude Speed Heading
2026-05-01 09:29 -34.93806 138.54031 26 ft 0 kts 320°
2026-05-01 09:38 -34.93818 138.54043 32 ft 4 kts 320°
2026-05-01 09:38 -34.93853 138.54089 30 ft 4 kts 291°
2026-05-01 09:39 -34.93857 138.54105 32 ft 0 kts 270°
2026-05-01 09:41 -34.93866 138.54089 29 ft 0 kts 218°
2026-05-01 09:41 -34.93933 138.54009 26 ft 11 kts 228°
2026-05-01 09:42 -34.93952 138.53982 26 ft 0 kts 230°
2026-05-01 09:42 -34.93962 138.53967 19 ft 6 kts 230°
2026-05-01 09:42 -34.94084 138.53912 26 ft 14 kts 167°
2026-05-01 09:43 -34.94259 138.53703 23 ft 23 kts 230°
2026-05-01 09:43 -34.94369 138.53544 23 ft 25 kts 230°
2026-05-01 09:43 -34.94462 138.53401 22 ft 4 kts 231°
2026-05-01 09:44 -34.94501 138.53343 22 ft 9 kts 231°
2026-05-01 09:44 -34.94514 138.53257 22 ft 13 kts 280°
2026-05-01 09:44 -34.94470 138.53144 22 ft 17 kts 303°
2026-05-01 09:45 -34.94462 138.53003 21 ft 19 kts 243°
2026-05-01 09:45 -34.94672 138.52787 20 ft 24 kts 219°
2026-05-01 09:45 -34.94816 138.52651 21 ft 20 kts 214°
2026-05-01 09:46 -34.94940 138.52542 19 ft 25 kts 216°
2026-05-01 09:46 -34.95087 138.52402 20 ft 29 kts 218°
2026-05-01 09:46 -34.95250 138.52244 19 ft 29 kts 218°
2026-05-01 09:46 -34.95355 138.52202 19 ft 11 kts 173°
2026-05-01 09:47 -34.95417 138.52240 22 ft 11 kts 145°
2026-05-01 09:47 -34.95450 138.52303 21 ft 6 kts 62°
2026-05-01 09:47 -34.95399 138.52380 21 ft 37 kts 52°
2026-05-01 09:47 -34.95021 138.52928 23 ft 128 kts 51°
2026-05-01 09:48 -34.94325 138.53959 357 ft 176 kts 45°
2026-05-01 09:48 -34.93523 138.55110 1547 ft 168 kts 45°
2026-05-01 09:48 -34.92799 138.56196 2759 ft 172 kts 51°
2026-05-01 09:48 -34.92432 138.57754 3134 ft 217 kts 85°
2026-05-01 09:49 -34.92942 138.59642 3469 ft 250 kts 112°
2026-05-01 09:49 -34.93783 138.61550 4022 ft 259 kts 114°
2026-05-01 09:49 -34.94637 138.63497 4733 ft 262 kts 114°
2026-05-01 09:49 -34.95496 138.65484 5375 ft 266 kts 113°
2026-05-01 09:50 -34.96359 138.67490 6090 ft 268 kts 114°
2026-05-01 09:50 -34.97228 138.69511 6755 ft 270 kts 113°
2026-05-01 09:50 -34.98098 138.71557 7367 ft 274 kts 113°
2026-05-01 09:50 -34.98982 138.73634 7998 ft 277 kts 113°
2026-05-01 09:51 -34.99879 138.75754 8510 ft 290 kts 113°
2026-05-01 09:51 -35.00828 138.78002 8986 ft 305 kts 113°
2026-05-01 09:51 -35.01804 138.80309 9932 ft 306 kts 113°
2026-05-01 09:51 -35.02785 138.82634 10673 ft 316 kts 113°
2026-05-01 09:52 -35.03834 138.85126 10899 ft 344 kts 114°
2026-05-01 09:52 -35.04961 138.87805 11190 ft 365 kts 114°
2026-05-01 09:52 -35.06137 138.90605 11859 ft 373 kts 112°
2026-05-01 09:52 -35.07135 138.93385 12601 ft 375 kts 108°
2026-05-01 09:53 -35.08088 138.96512 13386 ft 381 kts 105°
2026-05-01 09:53 -35.08971 138.99568 14061 ft 387 kts 105°
2026-05-01 09:53 -35.09873 139.02697 14739 ft 392 kts 105°
2026-05-01 09:53 -35.10793 139.05847 15428 ft 396 kts 106°
2026-05-01 09:54 -35.11733 139.09026 16107 ft 401 kts 107°
2026-05-01 09:54 -35.12693 139.12241 16764 ft 406 kts 107°
2026-05-01 09:54 -35.13671 139.15498 17412 ft 410 kts 107°
2026-05-01 09:54 -35.14582 139.18527 18020 ft 415 kts 107°
2026-05-01 09:55 -35.15592 139.21884 18626 ft 419 kts 107°
2026-05-01 09:55 -35.16605 139.25252 19187 ft 423 kts 108°
2026-05-01 09:55 -35.17622 139.28640 19759 ft 427 kts 108°
2026-05-01 09:55 -35.18650 139.32069 20326 ft 431 kts 108°
2026-05-01 09:56 -35.19685 139.35527 20878 ft 435 kts 108°
2026-05-01 09:56 -35.20730 139.39024 21415 ft 439 kts 108°
2026-05-01 09:56 -35.21781 139.42544 21944 ft 443 kts 108°
2026-05-01 09:56 -35.22843 139.46104 22472 ft 447 kts 108°
2026-05-01 09:57 -35.23912 139.49692 22977 ft 451 kts 108°
2026-05-01 09:57 -35.25047 139.53292 23487 ft 456 kts 111°
2026-05-01 09:57 -35.26309 139.56816 23914 ft 459 kts 112°
2026-05-01 09:57 -35.27656 139.60373 24346 ft 462 kts 113°
2026-05-01 09:58 -35.29026 139.63931 24776 ft 465 kts 114°
2026-05-01 09:58 -35.30409 139.67533 25195 ft 468 kts 113°
2026-05-01 09:58 -35.31786 139.71155 25598 ft 471 kts 113°
2026-05-01 09:58 -35.33160 139.74808 25991 ft 474 kts 113°
2026-05-01 09:59 -35.34533 139.78486 26379 ft 477 kts 112°
2026-05-01 09:59 -35.35928 139.82246 26766 ft 480 kts 112°
2026-05-01 09:59 -35.37288 139.85925 27138 ft 482 kts 112°
2026-05-01 09:59 -35.38677 139.89689 27525 ft 485 kts 112°
2026-05-01 10:00 -35.40063 139.93450 27882 ft 488 kts 112°
2026-05-01 10:00 -35.41442 139.97193 28213 ft 490 kts 112°
2026-05-01 10:00 -35.42841 140.00997 28577 ft 493 kts 112°
2026-05-01 10:00 -35.44252 140.04834 28930 ft 495 kts 112°
2026-05-01 10:01 -35.45671 140.08699 29271 ft 497 kts 112°
2026-05-01 10:01 -35.47091 140.12570 29596 ft 500 kts 112°
2026-05-01 10:01 -35.48516 140.16482 29912 ft 502 kts 112°
2026-05-01 10:01 -35.49939 140.20393 30206 ft 504 kts 112°
2026-05-01 10:02 -35.51363 140.24304 30579 ft 503 kts 112°
2026-05-01 10:02 -35.52789 140.28213 30941 ft 503 kts 112°
2026-05-01 10:02 -35.54214 140.32122 31293 ft 502 kts 112°
2026-05-01 10:02 -35.55642 140.36040 31645 ft 501 kts 112°
2026-05-01 10:03 -35.57067 140.39953 32015 ft 501 kts 112°
2026-05-01 10:03 -35.58488 140.43847 32381 ft 500 kts 113°
2026-05-01 10:03 -35.59901 140.47720 32772 ft 498 kts 112°
2026-05-01 10:03 -35.61293 140.51550 33139 ft 497 kts 112°
2026-05-01 10:04 -35.62673 140.55359 33440 ft 497 kts 112°
2026-05-01 10:04 -35.64075 140.59237 33756 ft 498 kts 112°
2026-05-01 10:04 -35.65476 140.63119 34101 ft 497 kts 112°
2026-05-01 10:04 -35.66873 140.66998 34403 ft 496 kts 112°
2026-05-01 10:05 -35.68268 140.70874 34687 ft 496 kts 112°
2026-05-01 10:05 -35.69665 140.74760 34926 ft 496 kts 112°
2026-05-01 10:05 -35.71052 140.78624 35160 ft 497 kts 112°
2026-05-01 10:05 -35.72429 140.82461 35421 ft 497 kts 112°
2026-05-01 10:06 -35.73839 140.86399 35696 ft 496 kts 112°
2026-05-01 10:06 -35.75228 140.90280 35967 ft 496 kts 112°
2026-05-01 10:06 -35.76598 140.94113 36258 ft 495 kts 112°
2026-05-01 10:06 -35.77950 140.98005 36496 ft 495 kts 111°
2026-05-01 10:07 -35.79285 141.01925 36682 ft 496 kts 111°
2026-05-01 10:07 -35.80654 141.05825 36906 ft 496 kts 112°
2026-05-01 10:07 -35.82058 141.09707 37122 ft 497 kts 112°
2026-05-01 10:07 -35.83476 141.13609 37088 ft 500 kts 113°
2026-05-01 10:08 -35.87697 141.25326 37096 ft 494 kts 112°
2026-05-01 10:09 -35.90430 141.33061 37114 ft 492 kts 112°
2026-05-01 10:09 -35.93149 141.40796 37112 ft 491 kts 112°
2026-05-01 10:10 -35.95860 141.48523 37111 ft 491 kts 112°
2026-05-01 10:10 -35.99927 141.60134 37121 ft 491 kts 112°
2026-05-01 10:11 -36.02635 141.67889 37126 ft 492 kts 112°
2026-05-01 10:11 -36.05342 141.75664 37124 ft 493 kts 112°
2026-05-01 10:12 -36.07593 141.82141 37126 ft 494 kts 112°
2026-05-01 10:13 -36.11588 141.93882 37134 ft 494 kts 111°
2026-05-01 10:13 -36.14336 142.01679 37133 ft 495 kts 112°
2026-05-01 10:14 -36.18387 142.13429 37137 ft 494 kts 111°
2026-05-01 10:14 -36.21057 142.21273 37141 ft 494 kts 111°
2026-05-01 10:15 -36.23727 142.29118 37138 ft 494 kts 111°
2026-05-01 10:15 -36.26393 142.36955 37142 ft 493 kts 111°
2026-05-01 10:16 -36.29045 142.44770 37149 ft 492 kts 111°
2026-05-01 10:17 -36.33012 142.56497 37154 ft 491 kts 111°
2026-05-01 10:17 -36.36917 142.68085 37165 ft 490 kts 111°
2026-05-01 10:18 -36.40844 142.79775 37160 ft 489 kts 110°
2026-05-01 10:19 -36.43449 142.87560 37164 ft 488 kts 110°
2026-05-01 10:19 -36.46036 142.95314 37168 ft 488 kts 110°
2026-05-01 10:20 -36.49926 143.06989 37177 ft 487 kts 110°
2026-05-01 10:20 -36.52486 143.14776 37165 ft 487 kts 108°
2026-05-01 10:21 -36.53728 143.18702 37048 ft 489 kts 110°
2026-05-01 10:21 -36.56279 143.26571 35882 ft 489 kts 110°
2026-05-01 10:21 -36.57602 143.30466 35218 ft 489 kts 110°
2026-05-01 10:22 -36.60252 143.38273 33788 ft 490 kts 109°
2026-05-01 10:22 -36.62836 143.46055 32233 ft 489 kts 109°
2026-05-01 10:23 -36.64118 143.49935 31466 ft 489 kts 110°
2026-05-01 10:23 -36.66718 143.57743 30110 ft 485 kts 111°
2026-05-01 10:23 -36.67979 143.61593 29457 ft 480 kts 110°
2026-05-01 10:24 -36.70439 143.69150 28304 ft 468 kts 110°
2026-05-01 10:24 -36.72840 143.76545 27154 ft 458 kts 110°
2026-05-01 10:25 -36.75198 143.83811 26052 ft 450 kts 110°
2026-05-01 10:25 -36.77521 143.90980 24959 ft 442 kts 109°
2026-05-01 10:26 -36.78663 143.94514 24399 ft 440 kts 109°
2026-05-01 10:26 -36.79769 143.97937 23866 ft 437 kts 109°
2026-05-01 10:26 -36.81975 144.04780 22664 ft 431 kts 109°
2026-05-01 10:27 -36.83946 144.10950 21678 ft 423 kts 109°
2026-05-01 10:27 -36.86016 144.17402 20668 ft 415 kts 109°
2026-05-01 10:28 -36.87074 144.20695 20145 ft 412 kts 109°
2026-05-01 10:28 -36.89186 144.27287 19112 ft 406 kts 109°
2026-05-01 10:28 -36.90227 144.30545 18591 ft 403 kts 109°
2026-05-01 10:29 -36.92330 144.36991 17445 ft 399 kts 113°
2026-05-01 10:29 -36.93732 144.39975 16962 ft 397 kts 124°
2026-05-01 10:30 -36.97282 144.45163 16001 ft 390 kts 130°
2026-05-01 10:30 -37.00862 144.50197 14989 ft 385 kts 129°
2026-05-01 10:31 -37.04363 144.55208 13969 ft 381 kts 128°
2026-05-01 10:31 -37.07812 144.60163 12884 ft 376 kts 129°
2026-05-01 10:32 -37.11215 144.65053 11866 ft 370 kts 128°
2026-05-01 10:32 -37.12894 144.67475 11380 ft 368 kts 128°
2026-05-01 10:32 -37.16244 144.72136 10850 ft 353 kts 139°
2026-05-01 10:33 -37.20639 144.74313 10593 ft 334 kts 168°
2026-05-01 10:33 -37.25073 144.75425 10300 ft 316 kts 169°
2026-05-01 10:34 -37.27209 144.75952 10075 ft 311 kts 168°
2026-05-01 10:34 -37.29345 144.76502 9563 ft 316 kts 168°
2026-05-01 10:34 -37.31495 144.77071 9238 ft 314 kts 167°
2026-05-01 10:35 -37.35724 144.78048 8699 ft 306 kts 172°
2026-05-01 10:35 -37.37822 144.78389 8459 ft 301 kts 172°
2026-05-01 10:35 -37.39882 144.78729 8243 ft 296 kts 172°
2026-05-01 10:35 -37.41902 144.79075 8030 ft 290 kts 172°
2026-05-01 10:36 -37.45834 144.79712 7604 ft 284 kts 181°
2026-05-01 10:36 -37.47751 144.79163 7418 ft 277 kts 203°
2026-05-01 10:36 -37.49535 144.78303 7230 ft 278 kts 203°
2026-05-01 10:37 -37.51347 144.77426 7018 ft 280 kts 202°
2026-05-01 10:37 -37.54968 144.75696 6604 ft 280 kts 203°
2026-05-01 10:37 -37.56687 144.74882 6399 ft 278 kts 202°
2026-05-01 10:38 -37.58483 144.74033 6184 ft 277 kts 201°
2026-05-01 10:38 -37.60368 144.73588 5971 ft 277 kts 182°
2026-05-01 10:38 -37.62292 144.73523 5785 ft 276 kts 181°
2026-05-01 10:38 -37.64187 144.73434 5572 ft 275 kts 181°
2026-05-01 10:39 -37.66085 144.73318 5375 ft 273 kts 182°
2026-05-01 10:39 -37.67978 144.73190 5184 ft 273 kts 182°
2026-05-01 10:39 -37.69878 144.73058 5034 ft 274 kts 182°
2026-05-01 10:39 -37.71783 144.72947 5004 ft 275 kts 181°
2026-05-01 10:40 -37.73687 144.72923 4990 ft 273 kts 179°
2026-05-01 10:40 -37.75590 144.72922 4934 ft 274 kts 180°
2026-05-01 10:40 -37.77488 144.72905 4807 ft 271 kts 180°
2026-05-01 10:40 -37.79402 144.72882 4496 ft 271 kts 180°
2026-05-01 10:41 -37.81231 144.73217 4180 ft 269 kts 151°
2026-05-01 10:41 -37.82659 144.74623 4016 ft 255 kts 126°
2026-05-01 10:41 -37.84295 144.78231 3825 ft 216 kts 95°
2026-05-01 10:42 -37.84270 144.79980 3764 ft 193 kts 73°
2026-05-01 10:42 -37.84069 144.81610 3603 ft 184 kts 73°
2026-05-01 10:42 -37.83875 144.83180 3329 ft 183 kts 72°
2026-05-01 10:42 -37.83671 144.84718 3221 ft 173 kts 72°
2026-05-01 10:43 -37.83229 144.85982 3120 ft 142 kts 30°
2026-05-01 10:43 -37.82308 144.86191 3143 ft 144 kts 357°
2026-05-01 10:43 -37.81275 144.86218 2898 ft 143 kts 359°
2026-05-01 10:43 -37.80313 144.86166 2681 ft 131 kts 357°
2026-05-01 10:44 -37.79468 144.86053 2505 ft 116 kts 355°
2026-05-01 10:44 -37.78714 144.85926 2355 ft 102 kts 356°
2026-05-01 10:44 -37.78036 144.85810 2246 ft 102 kts 356°
2026-05-01 10:44 -37.77308 144.85683 2106 ft 105 kts 356°
2026-05-01 10:45 -37.76611 144.85521 1953 ft 104 kts 352°
2026-05-01 10:45 -37.75904 144.85355 1813 ft 101 kts 354°
2026-05-01 10:45 -37.75226 144.85267 1712 ft 100 kts 356°
2026-05-01 10:45 -37.74515 144.85162 1563 ft 99 kts 354°
2026-05-01 10:46 -37.73813 144.85050 1453 ft 109 kts 359°
2026-05-01 10:46 -37.72995 144.85019 1274 ft 122 kts 351°
2026-05-01 10:46 -37.72149 144.84787 1127 ft 124 kts 347°
2026-05-01 10:46 -37.71301 144.84559 1020 ft 124 kts 344°
2026-05-01 10:47 -37.70454 144.84383 845 ft 124 kts 346°
2026-05-01 10:47 -37.69615 144.84241 663 ft 120 kts 351°
2026-05-01 10:47 -37.68833 144.84123 475 ft 115 kts 352°
2026-05-01 10:47 -37.68115 144.84009 359 ft 95 kts 353°
2026-05-01 10:48 -37.67584 144.83914 367 ft 60 kts 351°
2026-05-01 10:48 -37.67322 144.83870 373 ft 19 kts 348°
2026-05-01 10:48 -37.67259 144.83855 376 ft 11 kts 342°
2026-05-01 10:48 -37.67149 144.83832 381 ft 19 kts 354°
2026-05-01 10:49 -37.66972 144.83856 386 ft 34 kts 12°
2026-05-01 10:49 -37.66832 144.83912 391 ft 9 kts 16°
2026-05-01 10:49 -37.66739 144.83957 393 ft 14 kts 29°
2026-05-01 10:49 -37.66709 144.84029 394 ft 16 kts 97°
2026-05-01 10:50 -37.66779 144.84190 392 ft 22 kts 165°
2026-05-01 10:50 -37.66945 144.84222 386 ft 29 kts 166°
2026-05-01 10:50 -37.67141 144.84261 382 ft 25 kts 171°
2026-05-01 10:50 -37.67277 144.84283 379 ft 19 kts 174°
2026-05-01 10:51 -37.67389 144.84303 377 ft 12 kts 167°
2026-05-01 10:51 -37.67456 144.84324 375 ft 12 kts 152°
2026-05-01 10:51 -37.67465 144.84472 377 ft 18 kts 84°
2026-05-01 10:51 -37.67455 144.84562 379 ft 7 kts 82°
2026-05-01 10:52 -37.67447 144.84630 380 ft 9 kts 83°
2026-05-01 10:52 -37.67424 144.84693 381 ft 11 kts 16°
2026-05-01 10:52 -37.67401 144.84689 382 ft 9 kts 348°
2026-05-01 10:52 -37.67367 144.84680 383 ft 7 kts 348°
2026-05-01 10:53 -37.67360 144.84679 383 ft 0 kts 353°
2026-05-01 10:53 -37.67351 144.84678 383 ft 1 kts 352°
2026-05-01 10:53 -37.67345 144.84677 383 ft 0 kts 353°